SCP
0 0 0 0 0 0 0 0 0 0 0 0 0 0 0 0 0 0 0 0 0 0
0 0 0 0 0 0 0 0 0 0 0 0 0 0 0 0 0 0 0 0 0 0
0 0 0 0 0 0 0 0 0 0 0 0 0 0 0 0 0 0 0 -0 0 0
0 0 0 0 0 0 0 0 0 0 0 0 0 0 0 0 0 -0 -0 -0 -0 0
0 -0 0 0 0 0 0 0 0 0 0 0 0 0 0 0 0 0 0 -0 -0 -0
0 0 0 0 0 0 0 0 0 0 0 0 0 0 0 0 0 0 0 0 0 0
0 0 0 0 0 0 0 0 0 0 0 0 0 0 0 0 0 0 0 0 0 0
0 0 0 0 0 0 0 0 0 0 -0 0 0 0 0 0 0 0 0 0 0 0
0 0 0 0 0 0 0 0 0 -0 -0 -0 0 0 0 0 0 0 0 0 0 0
0 0 0 0 0 0 0 0 0 -0 0 -0 0 -0 0 0 0 0 0 0 0 0
0 0 0 0 0 0 0 0 0 0 0 -0 -0 -0 0 0 0 0 0 0 0 0
0 0 0 0 0 0 0 0 -0 -0 -0 -0 0 0 -0 0 0 0 0 0 0 0
0 0 0 0 0 0 0 0 0 -0 -0 -0 0 0 -0 0 0 0 0 0 0 0
0 0 0 0 0 0 0 0 0 0 0 -0 -0 0 0 0 0 0 0 0 0 0
Wind_Speed_500mb
23 21 20 23 28 35 34 30 37 52 49 41 36 37 37 35 28 27 25 25 22 21
19 22 30 37 40 36 38 42 40 43 40 42 36 37 33 25 25 25 24 20 16 16
29 38 46 51 52 45 40 36 35 39 36 34 32 25 20 22 24 23 17 15 15 14
43 50 56 52 42 45 41 30 32 35 35 29 25 27 25 23 24 24 22 18 17 15
48 54 51 42 46 38 37 31 29 29 28 27 29 29 29 29 29 31 29 26 23 19
52 50 45 39 39 37 35 35 32 29 31 32 33 31 34 31 35 31 38 19 19 16
50 52 40 36 35 37 36 37 38 35 36 35 36 33 32 32 37 37 32 20 23 16
49 41 34 40 37 34 35 36 38 38 38 37 38 42 37 36 39 30 30 29 27 22
43 33 35 38 38 34 35 37 37 37 36 34 39 47 43 41 35 31 30 28 25 24
37 37 34 37 36 37 37 37 40 32 33 36 39 39 40 39 30 29 32 33 32 28
30 36 37 34 33 35 36 38 38 34 33 32 45 37 43 41 26 34 36 35 34 35
27 36 35 32 32 34 32 36 42 38 31 28 33 33 45 48 29 36 35 34 32 31
23 33 34 32 29 30 34 35 34 34 35 26 25 31 39 51 41 34 38 38 37 34
26 31 31 26 26 27 25 26 30 31 33 30 23 26 31 40 52 49 39 45 44 44
Wind_Direction_500mb
342 350 351 346 332 323 326 326 325 321 321 324 321 318 314 319 311 301 303 304 291 287
4 357 354 349 343 339 329 331 334 332 333 334 331 322 320 322 331 326 318 307 294 297
6 359 352 345 342 344 347 347 348 352 351 352 354 6 3 342 344 338 326 314 298 286
357 353 349 351 2 2 1 360 8 11 14 17 5 354 354 351 346 345 335 317 311 318
357 359 359 10 11 16 22 25 24 16 18 1 4 360 0 353 345 325 314 305 298 284
2 2 4 10 21 27 26 24 21 10 6 8 9 6 352 355 359 356 359 328 317 291
5 3 10 16 29 27 25 22 23 21 20 16 14 5 7 358 351 344 355 350 327 306
4 6 23 37 31 28 23 23 20 26 21 26 23 8 349 346 356 4 29 36 50 84
10 18 19 25 24 25 27 25 26 28 26 22 25 23 25 14 19 38 54 51 63 86
16 26 33 29 25 28 27 26 28 26 28 30 27 24 18 15 35 48 58 61 66 94
18 20 24 25 30 32 32 30 26 30 32 35 41 36 22 21 55 68 70 73 82 82
24 33 32 31 37 32 39 38 34 34 31 40 37 37 32 33 63 81 85 85 82 84
42 31 33 35 39 41 43 39 32 33 38 47 46 43 45 46 58 73 85 90 84 80
29 25 30 34 38 39 34 36 39 40 39 47 54 49 57 56 57 61 82 89 88 93
Wind_Speed_850mb
23 21 20 23 28 35 34 30 37 52 49 41 36 37 37 35 28 27 25 25 22 21
19 22 30 37 40 36 38 42 40 43 40 42 36 37 33 25 25 25 24 20 16 16
29 38 46 51 52 45 40 36 35 39 36 34 32 25 20 22 24 23 17 15 15 14
43 50 56 52 42 45 41 30 32 35 35 29 25 27 25 23 24 24 22 18 17 15
48 54 51 42 46 38 37 31 29 29 28 27 29 29 29 29 29 31 29 26 23 19
52 50 45 39 39 37 35 35 32 29 31 32 33 31 34 31 35 31 38 19 19 16
50 52 40 36 35 37 36 37 38 35 36 35 36 33 32 32 37 37 32 20 23 16
49 41 34 40 37 34 35 36 38 38 38 37 38 42 37 36 39 30 30 29 27 22
43 33 35 38 38 34 35 37 37 37 36 34 39 47 43 41 35 31 30 28 25 24
37 37 34 37 36 37 37 37 40 32 33 36 39 39 40 39 30 29 32 33 32 28
30 36 37 34 33 35 36 38 38 34 33 32 45 37 43 41 26 34 36 35 34 35
27 36 35 32 32 34 32 36 42 38 31 28 33 33 45 48 29 36 35 34 32 31
23 33 34 32 29 30 34 35 34 34 35 26 25 31 39 51 41 34 38 38 37 34
26 31 31 26 26 27 25 26 30 31 33 30 23 26 31 40 52 49 39 45 44 44
Wind_Direction_850mb
342 350 351 346 332 323 326 326 325 321 321 324 321 318 314 319 311 301 303 304 291 287
4 357 354 349 343 339 329 331 334 332 333 334 331 322 320 322 331 326 318 307 294 297
6 359 352 345 342 344 347 347 348 352 351 352 354 6 3 342 344 338 326 314 298 286
357 353 349 351 2 2 1 360 8 11 14 17 5 354 354 351 346 345 335 317 311 318
357 359 359 10 11 16 22 25 24 16 18 1 4 360 0 353 345 325 314 305 298 284
2 2 4 10 21 27 26 24 21 10 6 8 9 6 352 355 359 356 359 328 317 291
5 3 10 16 29 27 25 22 23 21 20 16 14 5 7 358 351 344 355 350 327 306
4 6 23 37 31 28 23 23 20 26 21 26 23 8 349 346 356 4 29 36 50 84
10 18 19 25 24 25 27 25 26 28 26 22 25 23 25 14 19 38 54 51 63 86
16 26 33 29 25 28 27 26 28 26 28 30 27 24 18 15 35 48 58 61 66 94
18 20 24 25 30 32 32 30 26 30 32 35 41 36 22 21 55 68 70 73 82 82
24 33 32 31 37 32 39 38 34 34 31 40 37 37 32 33 63 81 85 85 82 84
42 31 33 35 39 41 43 39 32 33 38 47 46 43 45 46 58 73 85 90 84 80
29 25 30 34 38 39 34 36 39 40 39 47 54 49 57 56 57 61 82 89 88 93